Location: Arbon
(43.0005°N, 0.7472°E)
Time: 19:57:01
(UTC+00:00)

Courier 1B Rocket - Pass Details

Date: 30 November 2020
Orbit: 920 x 1202 km, 28.2° (Epoch: 22 January)

Event Time Altitude Azimuth Distance (km) Brightness Sun altitude
Rises 08:26:35 0° 254° (WSW) 4,081 7.9 10.7°
Reaches altitude 10° 08:30:11 10° 240° (WSW) 3,094 7.5 11.2°
Maximum altitude 08:35:44 22° 193° (SSW) 2,277 7.5 11.9°
Drops below altitude 10° 08:41:05 10° 146° (SE) 2,970 10.0 12.6°
Sets 08:44:28 0° 132° (SE) 3,877 10.2 13.0°
